DELTA 1 DEB, 10754

Orbit data source: Space-Track

DELTA 1 DEB, 10754 is space debris in SSO originally from a launch on Thu, 29 Jul 1976 UTC launched from the Air Force Western Test Range (AFWTR). Debris objects in space refer to the collection of defunct objects orbiting the Earth. Examples of debris include non-operational satellites, rocket bodies, and fragments generated from explosions, collisions, or faulty payload assembly.

Loading next visibility...
Identifier
10754, 1976-077BB
Orbit
SSO
Country
Flag of USUS
Related business
Manufacturer
Unknown
Mission
Spacecraft
Bus & Motor
Unknown
Mass
Unknown
Launch date (UTC)
1976-07-29 (50 years ago)
Launch vehicle
Unknown
Launch site
Air Force Western Test Range (AFWTR)
Object type
Payload
Rocket body
Debris
Shape & HBR
Unknown shape, 0.2 m
Radar Cross Section
Medium (>0.1 m² and <1 m²)

Expand to show TLE details & history
Last TLE update: 17 hours ago

TLE from 17 hours ago
0 DELTA 1 DEB
1 10754U 76077BB  26170.90387410 -.00000035  00000-0  98337-4 0  9995
2 10754 102.7138 159.6256 0123333  82.1438 309.3123 12.21685547225771
Epoch: 2026-06-19T21:41Z
TLE epoch observation values (Epoch: 2026-06-19T21:41:34.722Z)
Latitude
29.58082°
Longitude
-81.21696°
Altitude
1,527.043 km
Speed
7.132 km/s
True Right ascension
10h 09m 12s
True Declination
29° 26' 52"
Sunlit
Object was in daylight at epoch
Visualization orbit readout
Latitude
Unknown
Longitude
Unknown
Altitude
Unknown
Speed
Unknown
Apparent Right ascension
Unknown
Apparent Declination
Unknown
Sunlit
N/A
Visualization observer readout
Local Sidereal Time
01:22:04
Azimuth
Unknown
Elevation
Unknown
Doppler factor
Unknown
Orbital elements
Apogee altitude
1,681.035 km
Perigee altitude
1,484.665 km
Semi-major axis
7,960.987 km
Eccentricity
0.01233
Inclination
102.7138°
RAAN
159.6256°
Arg. of periapsis
82.1438°
True anomaly
308.20812°
Mean anomaly
309.3123°
Eccentric anomaly
308.76128°
Mean motion
3.05557 °/min
Orbital period
117.82 mins
BSTAR
0.000098337
Loading maneuver chart data...
Computing Atmospheric mass density...
Loading historical data...
Loading historical data...
Loading historical data...
Loading historical data...
Loading historical data...
Loading historical data...
Loading historical data...

Documentation

Showing up to 5 results
|